Terug naar catalogus

THOR ABLESTAR DEB

ActiefLEO
NORAD 5826·DEBRIS·🇺🇸 United States

Gelanceerd Jun 29, 1961 vanaf Cape Canaveral Space Force Station

Loading…

Volgende Passages (komende 24 uur)

TLE

VersSource: Space-Track

Epoch: Sep 13, 2026, 23:21 UTC

1 05826U 61015KE  26256.97309892  .00000391  00000-0  32459-3 0  9991
2 05826  66.6777  92.7759 0077903 203.4177 156.3350 13.97650356283136

Volg THOR ABLESTAR DEB in realtime met AllMySat

Download on the App Store